| time (UTC) | temp F | wind direction | speed knots | gust knots | rain 1hr in | rain 24hr in | rain mn in | humidity % | barometer mb |
| 20260506001603 | 52 | 0.0 | 0.0 | 0.00 | 0.03 | 0.01 | 99 | 1008.0 | |
| 20260506000543 | 52 | 0.0 | 0.0 | 0.00 | 0.03 | 0.01 | 98 | 1008.1 | |
| 20260505235603 | 52 | 0.0 | 0.9 | 0.00 | 0.03 | 0.01 | 98 | 1008.1 | |
| 20260505234545 | 52 | 0.0 | 0.0 | 0.00 | 0.03 | 0.01 | 98 | 1008.1 | |
| 20260505233545 | 52 | 0.0 | 0.0 | 0.00 | 0.03 | 0.01 | 98 | 1008.3 | |
| 20260505232545 | 52 | 125 | 0.0 | 1.7 | 0.00 | 0.03 | 0.01 | 97 | 1008.3 |
| 20260505231545 | 52 | 0.0 | 0.9 | 0.01 | 0.03 | 0.01 | 96 | 1008.4 | |
| 20260505230546 | 52 | 151 | 0.0 | 1.7 | 0.01 | 0.03 | 0.01 | 96 | 1008.3 |
| 20260505225547 | 53 | 132 | 0.0 | 1.7 | 0.01 | 0.03 | 0.01 | 96 | 1008.3 |
| 20260505224546 | 53 | 179 | 0.9 | 4.3 | 0.01 | 0.03 | 0.01 | 96 | 1008.3 |
| 20260505223548 | 53 | 132 | 0.9 | 2.6 | 0.02 | 0.03 | 0.01 | 97 | 1008.4 |
| 20260505222547 | 54 | 99 | 0.9 | 4.3 | 0.02 | 0.03 | 0.01 | 96 | 1008.6 |
| 20260505221548 | 54 | 180 | 1.7 | 5.2 | 0.01 | 0.02 | 0.00 | 96 | 1008.7 |
| 20260505220548 | 54 | 210 | 1.7 | 5.2 | 0.02 | 0.02 | 0.00 | 96 | 1008.9 |
| 20260505215549 | 54 | 194 | 1.7 | 4.3 | 0.02 | 0.02 | 0.02 | 97 | 1008.9 |
| 20260505214549 | 54 | 195 | 1.7 | 4.3 | 0.02 | 0.02 | 0.02 | 95 | 1008.8 |
| 20260505213549 | 54 | 160 | 1.7 | 5.2 | 0.01 | 0.01 | 0.01 | 94 | 1008.6 |
| 20260505212550 | 54 | 181 | 0.9 | 4.3 | 0.01 | 0.01 | 0.01 | 94 | 1008.6 |
| 20260505211551 | 55 | 169 | 0.9 | 4.3 | 0.01 | 0.01 | 0.01 | 91 | 1008.6 |
| 20260505210551 | 56 | 268 | 1.7 | 6.1 | 0.00 | 0.00 | 0.00 | 87 | 1008.5 |
| 20260505205552 | 58 | 233 | 3.5 | 7.8 | 0.00 | 0.00 | 0.00 | 81 | 1008.2 |
| 20260505204551 | 58 | 188 | 1.7 | 7.8 | 0.00 | 0.00 | 0.00 | 80 | 1008.1 |
| 20260505203552 | 58 | 216 | 2.6 | 7.8 | 0.00 | 0.00 | 0.00 | 81 | 1007.9 |
| 20260505202552 | 58 | 163 | 1.7 | 6.1 | 0.00 | 0.00 | 0.00 | 81 | 1007.7 |
| 20260505201553 | 57 | 109 | 0.9 | 1.7 | 0.00 | 0.00 | 0.00 | 82 | 1007.3 |
| 20260505200553 | 57 | 0.0 | 0.0 | 0.00 | 0.00 | 0.00 | 84 | 1007.0 | |
| 20260505195633 | 58 | 116 | 0.0 | 0.9 | 0.00 | 0.00 | 0.00 | 84 | 1006.9 |
| 20260505194554 | 58 | 156 | 0.9 | 2.6 | 0.00 | 0.00 | 0.00 | 82 | 1006.5 |
| 20260505193615 | 59 | 152 | 0.0 | 1.7 | 0.00 | 0.00 | 0.00 | 83 | 1006.4 |
| 20260505192554 | 59 | 163 | 0.9 | 2.6 | 0.00 | 0.00 | 0.00 | 81 | 1006.2 |
| 20260505191555 | 59 | 54 | 0.9 | 2.6 | 0.00 | 0.00 | 0.00 | 80 | 1005.8 |
| 20260505190555 | 59 | 94 | 0.0 | 1.7 | 0.00 | 0.00 | 0.00 | 84 | 1006.1 |
| 20260505185616 | 58 | 30 | 0.0 | 2.6 | 0.00 | 0.00 | 0.00 | 84 | 1006.2 |
| 20260505184556 | 59 | 139 | 0.0 | 1.7 | 0.00 | 0.00 | 0.00 | 85 | 1006.2 |
| 20260505183557 | 59 | 128 | 0.0 | 1.7 | 0.00 | 0.00 | 0.00 | 83 | 1005.8 |
| 20260505182617 | 59 | 19 | 0.9 | 2.6 | 0.00 | 0.00 | 0.00 | 81 | 1005.5 |
| 20260505181559 | 60 | 47 | 0.9 | 2.6 | 0.00 | 0.00 | 0.00 | 80 | 1005.3 |
| 20260505180558 | 60 | 100 | 0.0 | 1.7 | 0.00 | 0.00 | 0.00 | 78 | 1005.2 |
| 20260505175558 | 61 | 136 | 0.0 | 1.7 | 0.00 | 0.00 | 0.00 | 78 | 1005.0 |
| 20260505174559 | 61 | 97 | 0.0 | 2.6 | 0.00 | 0.00 | 0.00 | 78 | 1005.0 |
| 20260505173620 | 62 | 84 | 0.9 | 1.7 | 0.00 | 0.00 | 0.00 | 77 | 1004.9 |
| 20260505172620 | 61 | 28 | 1.7 | 4.3 | 0.00 | 0.00 | 0.00 | 77 | 1004.9 |
| 20260505171600 | 62 | 73 | 0.9 | 2.6 | 0.00 | 0.00 | 0.00 | 76 | 1004.9 |
| 20260505170601 | 62 | 42 | 1.7 | 5.2 | 0.00 | 0.00 | 0.00 | 73 | 1004.8 |
| 20260505165601 | 63 | 28 | 1.7 | 4.3 | 0.00 | 0.00 | 0.00 | 71 | 1005.0 |
| 20260505164601 | 64 | 76 | 0.9 | 5.2 | 0.00 | 0.00 | 0.00 | 71 | 1005.0 |
| 20260505163602 | 63 | 23 | 1.7 | 4.3 | 0.00 | 0.00 | 0.00 | 72 | 1004.7 |
| 20260505162603 | 63 | 20 | 1.7 | 2.6 | 0.00 | 0.00 | 0.00 | 72 | 1004.9 |
| 20260505161603 | 63 | 39 | 0.9 | 4.3 | 0.00 | 0.00 | 0.00 | 72 | 1005.0 |
| 20260505160603 | 62 | 66 | 0.9 | 4.3 | 0.00 | 0.00 | 0.00 | 74 | 1004.9 |
| 20260505152533 | 62 | 51 | 0.9 | 5.2 | 0.00 | 0.00 | 0.00 | 75 | 1005.4 |
| 20260505151533 | 62 | 52 | 1.7 | 4.3 | 0.00 | 0.00 | 0.00 | 76 | 1005.5 |
| 20260505150533 | 63 | 101 | 0.9 | 2.6 | 0.00 | 0.00 | 0.00 | 74 | 1005.6 |
| 20260505140536 | 68 | 229 | 3.5 | 8.7 | 0.00 | 0.00 | 0.00 | 55 | 1005.1 |
| 20260505124620 | 76 | 349 | 0.0 | 1.7 | 0.00 | 0.00 | 0.00 | 38 | 1004.7 |
| 20260505123540 | 76 | 108 | 0.9 | 1.7 | 0.00 | 0.00 | 0.00 | 38 | 1004.7 |
| 20260505122540 | 75 | 60 | 0.9 | 2.6 | 0.00 | 0.00 | 0.00 | 39 | 1004.8 |
| 20260505121601 | 75 | 59 | 2.6 | 5.2 | 0.00 | 0.00 | 0.00 | 38 | 1004.8 |
| 20260505120621 | 76 | 43 | 1.7 | 5.2 | 0.00 | 0.00 | 0.00 | 37 | 1004.9 |
| 20260505115541 | 77 | 179 | 0.9 | 2.6 | 0.00 | 0.00 | 0.00 | 35 | 1005.0 |
| 20260505114602 | 75 | 84 | 0.9 | 2.6 | 0.00 | 0.00 | 0.00 | 35 | 1005.0 |
| 20260505113542 | 74 | 107 | 2.6 | 4.3 | 0.00 | 0.00 | 0.00 | 37 | 1005.1 |
| 20260505112543 | 75 | 101 | 1.7 | 5.2 | 0.00 | 0.00 | 0.00 | 35 | 1005.3 |
| 20260505111543 | 75 | 85 | 1.7 | 5.2 | 0.00 | 0.00 | 0.00 | 37 | 1005.3 |
| 20260505110544 | 74 | 54 | 1.7 | 5.2 | 0.00 | 0.00 | 0.00 | 41 | 1005.5 |
| 20260505101606 | 74 | 74 | 2.6 | 5.2 | 0.00 | 0.00 | 0.00 | 45 | 1006.3 |
| 20260505100546 | 74 | 182 | 0.9 | 2.6 | 0.00 | 0.00 | 0.00 | 42 | 1006.3 |
| 20260505095607 | 73 | 125 | 0.9 | 2.6 | 0.00 | 0.00 | 0.00 | 41 | 1006.5 |
| 20260505094608 | 72 | 133 | 0.9 | 2.6 | 0.00 | 0.00 | 0.00 | 49 | 1006.5 |
| 20260505093547 | 71 | 62 | 0.9 | 2.6 | 0.00 | 0.00 | 0.00 | 50 | 1006.6 |
| 20260505092547 | 72 | 93 | 0.9 | 4.3 | 0.00 | 0.00 | 0.00 | 51 | 1007.1 |
| 20260505091548 | 72 | 129 | 0.9 | 2.6 | 0.00 | 0.00 | 0.00 | 48 | 1007.1 |
| 20260505090548 | 71 | 151 | 0.9 | 2.6 | 0.00 | 0.00 | 0.00 | 48 | 1007.1 |
| 20260505085550 | 69 | 95 | 0.9 | 2.6 | 0.00 | 0.00 | 0.00 | 54 | 1007.2 |
| 20260505084549 | 71 | 53 | 0.9 | 1.7 | 0.00 | 0.00 | 0.00 | 55 | 1007.2 |
| 20260505083551 | 70 | 53 | 0.9 | 2.6 | 0.00 | 0.00 | 0.00 | 58 | 1007.2 |
| 20260505082550 | 68 | 117 | 0.9 | 2.6 | 0.00 | 0.00 | 0.00 | 59 | 1007.5 |
| 20260505081551 | 68 | 104 | 0.9 | 1.7 | 0.00 | 0.00 | 0.00 | 63 | 1007.6 |
| 20260505080551 | 65 | 136 | 0.0 | 0.9 | 0.00 | 0.00 | 0.00 | 67 | 1007.7 |
| 20260505075552 | 64 | 74 | 0.0 | 0.9 | 0.00 | 0.00 | 0.00 | 71 | 1007.7 |
| 20260505074552 | 64 | 72 | 0.9 | 1.7 | 0.00 | 0.00 | 0.00 | 71 | 1007.8 |
| 20260505073612 | 64 | 69 | 0.0 | 0.9 | 0.00 | 0.00 | 0.00 | 70 | 1007.8 |
| 20260505072554 | 64 | 109 | 0.0 | 1.7 | 0.00 | 0.00 | 0.00 | 71 | 1007.9 |
| 20260505071553 | 64 | 21 | 0.9 | 1.7 | 0.00 | 0.00 | 0.00 | 70 | 1008.0 |
| 20260505070554 | 63 | 69 | 0.0 | 1.7 | 0.00 | 0.00 | 0.00 | 72 | 1008.1 |
| 20260505065554 | 62 | 62 | 0.9 | 1.7 | 0.00 | 0.00 | 0.00 | 74 | 1008.1 |
| 20260505064554 | 62 | 30 | 0.9 | 2.6 | 0.00 | 0.00 | 0.00 | 73 | 1008.1 |
| 20260505063555 | 62 | 69 | 0.9 | 1.7 | 0.00 | 0.00 | 0.00 | 73 | 1008.0 |
| 20260505062555 | 61 | 86 | 0.9 | 1.7 | 0.00 | 0.00 | 0.00 | 74 | 1008.1 |
| 20260505061616 | 60 | 79 | 0.9 | 4.3 | 0.00 | 0.00 | 0.00 | 75 | 1008.0 |
| 20260505060616 | 59 | 77 | 0.9 | 2.6 | 0.00 | 0.00 | 0.00 | 75 | 1008.1 |
| 20260505055556 | 59 | 62 | 0.9 | 2.6 | 0.00 | 0.00 | 0.00 | 76 | 1008.1 |
| 20260505054558 | 59 | 55 | 0.9 | 1.7 | 0.00 | 0.00 | 0.00 | 76 | 1008.2 |
| 20260505053558 | 59 | 0.0 | 0.0 | 0.00 | 0.00 | 0.00 | 76 | 1008.4 | |
| 20260505052558 | 59 | 0.0 | 0.0 | 0.00 | 0.00 | 0.00 | 75 | 1008.3 | |
| 20260505051558 | 57 | 0.0 | 0.0 | 0.00 | 0.00 | 0.00 | 79 | 1008.3 | |
| 20260505050558 | 54 | 0.0 | 0.0 | 0.00 | 0.00 | 0.00 | 84 | 1008.4 | |
| 20260505041533 | 47 | 0.0 | 0.0 | 0.00 | 0.00 | 0.00 | 99 | 1008.3 | |
| 20260505040533 | 46 | 0.0 | 0.0 | 0.00 | 0.00 | 0.00 | 98 | 1008.3 | |
| 20260505035614 | 47 | 0.0 | 0.0 | 0.00 | 0.00 | 0.00 | 98 | 1008.4 | |
| 20260505034534 | 47 | 0.0 | 0.0 | 0.00 | 0.00 | 0.00 | 98 | 1008.5 | |
| 20260505033534 | 47 | 0.0 | 0.0 | 0.00 | 0.00 | 0.00 | 98 | 1008.4 | |
| 20260505032534 | 47 | 0.0 | 0.0 | 0.00 | 0.00 | 0.00 | 98 | 1008.5 | |
| 20260505031535 | 47 | 91 | 0.0 | 0.9 | 0.00 | 0.00 | 0.00 | 97 | 1008.7 |
| 20260505030535 | 48 | 86 | 0.0 | 0.9 | 0.00 | 0.00 | 0.00 | 96 | 1008.5 |
| 20260505025536 | 48 | 0.0 | 0.0 | 0.00 | 0.00 | 0.00 | 95 | 1008.5 | |
| 20260505024536 | 49 | 112 | 0.0 | 1.7 | 0.00 | 0.00 | 0.00 | 96 | 1008.6 |
| 20260505023537 | 49 | 0.0 | 0.0 | 0.00 | 0.00 | 0.00 | 95 | 1008.7 | |
| 20260505022538 | 49 | 0.0 | 0.9 | 0.00 | 0.00 | 0.00 | 95 | 1008.9 | |
| 20260505021538 | 49 | 0.0 | 0.0 | 0.00 | 0.00 | 0.00 | 94 | 1009.1 | |
| 20260505020538 | 50 | 81 | 0.0 | 0.9 | 0.00 | 0.00 | 0.00 | 94 | 1009.1 |
| 20260505015538 | 50 | 0.0 | 0.0 | 0.00 | 0.00 | 0.00 | 93 | 1009.2 | |
| 20260505014539 | 50 | 0.0 | 0.0 | 0.00 | 0.00 | 0.00 | 91 | 1009.0 | |
| 20260505013539 | 51 | 0.0 | 0.0 | 0.00 | 0.00 | 0.00 | 91 | 1009.2 | |
| 20260505012600 | 51 | 0.0 | 0.0 | 0.00 | 0.00 | 0.00 | 90 | 1009.1 | |
| 20260505011600 | 52 | 0.0 | 0.0 | 0.00 | 0.00 | 0.00 | 88 | 1009.2 | |
| 20260505010600 | 53 | 0.0 | 0.0 | 0.00 | 0.00 | 0.00 | 86 | 1009.4 | |
| 20260505005542 | 55 | 130 | 0.0 | 0.9 | 0.00 | 0.00 | 0.00 | 84 | 1009.4 |
| 20260505004541 | 54 | 0.0 | 0.0 | 0.00 | 0.00 | 0.00 | 86 | 1009.4 | |
| 20260505003542 | 54 | 0.0 | 0.0 | 0.00 | 0.00 | 0.00 | 84 | 1009.5 | |
| 20260505002543 | 56 | 0.0 | 0.0 | 0.00 | 0.00 | 0.00 | 81 | 1009.7 |